{"data":{"norad_id":59600,"intl_designator":"2024-079C","name":"GSAT0227 (GALILEO 30)","alt_names":[],"object_type":"PAYLOAD","status":"ACTIVE","operator":null,"country":"ESA","launch_date":"2024-04-28","launch_site_code":"AFETR","launch_vehicle":null,"mission":null,"orbit_class":"UNKNOWN","rcs_meters":null,"size_class":null,"mass_kg":null,"dimensions":null,"purposes":["earth_obs","nav"],"wikipedia_slug":null,"has_3d_model":false,"image_url":null,"decayed_at":null,"tle_current":{"epoch":"2026-05-24T12:56:51.909216Z","epoch_age_seconds":121748,"freshness":"FRESH","line1":"1 59600U 24079C   26144.53948969  .00000014  00000+0  00000+0 0  9995","line2":"2 59600  55.1009 101.7389 0001697  32.5284 327.4422  1.70474140 12968","mean_motion":1.7047414,"eccentricity":0.0001697,"inclination_deg":55.1009,"raan_deg":101.7389,"arg_perigee_deg":32.5284,"mean_anomaly_deg":327.4422,"bstar":0,"rev_number":1296,"period_min":844.70289745999,"perigee_km":23217.143680042,"apogee_km":23227.19002317,"semimajor_km":29600.303851606,"source":"CELESTRAK","updated_at":"2026-05-25T13:38:24.061998Z"}}}